AUA202 EDDF-LOWW

Flight info

Callsign AUA202
Flight time 1h 1m
Altitude 34000
Route SULUS7S/18 SULUS Z650 VEMUT DCT BUDEX BUDEX2W
Aircraft A320/M-SDE3FGHIRWY/LB1

Departure

Time 2026-05-07 07:28
Airport Frankfurt Main Airport (EDDF)

Arrival

Time 2026-05-07 08:30
Airport Vienna International Airport (LOWW)
Time Latitude Longitude Altitude Speed Heading
2026-05-07 06:40 50.04580 8.56621 359 ft 0 kts 115°
2026-05-07 06:45 50.04580 8.56620 359 ft 0 kts 115°
2026-05-07 07:12 50.04581 8.56620 356 ft 0 kts 115°
2026-05-07 07:16 50.04583 8.56613 356 ft 3 kts 115°
2026-05-07 07:16 50.04593 8.56579 363 ft 3 kts 116°
2026-05-07 07:16 50.04604 8.56545 365 ft 3 kts 121°
2026-05-07 07:16 50.04618 8.56515 362 ft 3 kts 139°
2026-05-07 07:17 50.04636 8.56501 363 ft 3 kts 202°
2026-05-07 07:17 50.04629 8.56495 361 ft 3 kts 204°
2026-05-07 07:17 50.04606 8.56479 362 ft 3 kts 204°
2026-05-07 07:17 50.04585 8.56464 356 ft 3 kts 205°
2026-05-07 07:18 50.04578 8.56459 356 ft 0 kts 205°
2026-05-07 07:21 50.04563 8.56448 359 ft 8 kts 205°
2026-05-07 07:21 50.04510 8.56358 359 ft 14 kts 249°
2026-05-07 07:22 50.04473 8.56204 358 ft 16 kts 249°
2026-05-07 07:22 50.04428 8.56046 359 ft 16 kts 227°
2026-05-07 07:22 50.04343 8.56055 357 ft 11 kts 158°
2026-05-07 07:22 50.04274 8.56056 357 ft 10 kts 215°
2026-05-07 07:23 50.04242 8.55952 355 ft 14 kts 250°
2026-05-07 07:23 50.04202 8.55787 356 ft 19 kts 249°
2026-05-07 07:23 50.04153 8.55579 356 ft 23 kts 249°
2026-05-07 07:23 50.04095 8.55337 360 ft 25 kts 250°
2026-05-07 07:24 50.04036 8.55093 357 ft 23 kts 249°
2026-05-07 07:24 50.03986 8.54885 354 ft 21 kts 250°
2026-05-07 07:24 50.03935 8.54670 356 ft 23 kts 249°
2026-05-07 07:24 50.03881 8.54443 347 ft 19 kts 249°
2026-05-07 07:25 50.03750 8.54015 352 ft 24 kts 249°
2026-05-07 07:25 50.03692 8.53772 347 ft 26 kts 249°
2026-05-07 07:25 50.03634 8.53536 339 ft 25 kts 248°
2026-05-07 07:26 50.03576 8.53303 337 ft 22 kts 249°
2026-05-07 07:26 50.03519 8.53062 334 ft 25 kts 249°
2026-05-07 07:26 50.03461 8.52842 336 ft 21 kts 245°
2026-05-07 07:26 50.03416 8.52663 332 ft 17 kts 248°
2026-05-07 07:27 50.03339 8.52594 335 ft 13 kts 180°
2026-05-07 07:27 50.03211 8.52595 335 ft 36 kts 180°
2026-05-07 07:27 50.02702 8.52599 335 ft 106 kts 180°
2026-05-07 07:27 50.01764 8.52609 334 ft 161 kts 179°
2026-05-07 07:28 50.00585 8.52615 735 ft 174 kts 182°
2026-05-07 07:28 49.99367 8.52617 1481 ft 176 kts 182°
2026-05-07 07:28 49.98110 8.52633 1996 ft 190 kts 180°
2026-05-07 07:28 49.96764 8.53219 2283 ft 217 kts 146°
2026-05-07 07:29 49.95741 8.55043 2766 ft 233 kts 117°
2026-05-07 07:29 49.94971 8.57273 3577 ft 237 kts 117°
2026-05-07 07:29 49.94246 8.59583 4422 ft 239 kts 105°
2026-05-07 07:29 49.93977 8.62192 5013 ft 256 kts 91°
2026-05-07 07:30 49.93865 8.65044 5642 ft 271 kts 92°
2026-05-07 07:30 49.93489 8.67906 6461 ft 280 kts 109°
2026-05-07 07:30 49.92514 8.70542 7261 ft 286 kts 130°
2026-05-07 07:30 49.91194 8.72872 8076 ft 292 kts 125°
2026-05-07 07:31 49.90488 8.75828 8857 ft 296 kts 92°
2026-05-07 07:31 49.90782 8.78976 9660 ft 298 kts 73°
2026-05-07 07:31 49.91263 8.82150 10299 ft 310 kts 76°
2026-05-07 07:31 49.91677 8.85555 10551 ft 334 kts 79°
2026-05-07 07:32 49.92045 8.89207 11006 ft 348 kts 80°
2026-05-07 07:32 49.92379 8.92947 11751 ft 352 kts 81°
2026-05-07 07:32 49.92699 8.96729 12566 ft 354 kts 81°
2026-05-07 07:32 49.93018 9.00486 13368 ft 356 kts 81°
2026-05-07 07:33 49.93351 9.04300 14122 ft 358 kts 81°
2026-05-07 07:33 49.93694 9.08139 14783 ft 361 kts 81°
2026-05-07 07:33 49.94046 9.12033 15436 ft 365 kts 80°
2026-05-07 07:33 49.94400 9.15922 16082 ft 368 kts 81°
2026-05-07 07:34 49.94761 9.19897 16738 ft 371 kts 81°
2026-05-07 07:34 49.95123 9.23884 17386 ft 375 kts 81°
2026-05-07 07:34 49.95488 9.27915 18023 ft 378 kts 81°
2026-05-07 07:34 49.95853 9.31971 18615 ft 381 kts 81°
2026-05-07 07:35 49.96212 9.36019 19172 ft 385 kts 81°
2026-05-07 07:35 49.96576 9.40150 19748 ft 388 kts 81°
2026-05-07 07:35 49.96944 9.44311 20316 ft 391 kts 81°
2026-05-07 07:35 49.97314 9.48509 20884 ft 394 kts 81°
2026-05-07 07:36 49.97687 9.52750 21445 ft 397 kts 81°
2026-05-07 07:36 49.98057 9.57012 21996 ft 400 kts 81°
2026-05-07 07:36 49.98428 9.61317 22518 ft 403 kts 81°
2026-05-07 07:36 49.98794 9.65597 23024 ft 406 kts 81°
2026-05-07 07:37 49.99168 9.69959 23514 ft 410 kts 81°
2026-05-07 07:37 49.99546 9.74352 23927 ft 412 kts 81°
2026-05-07 07:37 49.99926 9.78790 24337 ft 415 kts 81°
2026-05-07 07:37 50.00305 9.83248 24741 ft 417 kts 81°
2026-05-07 07:38 50.00685 9.87725 25150 ft 419 kts 81°
2026-05-07 07:38 50.01064 9.92219 25539 ft 421 kts 81°
2026-05-07 07:38 50.01441 9.96729 25922 ft 423 kts 81°
2026-05-07 07:38 50.01818 10.01289 26289 ft 425 kts 82°
2026-05-07 07:39 50.02188 10.05802 26653 ft 427 kts 82°
2026-05-07 07:39 50.02561 10.10385 27036 ft 430 kts 82°
2026-05-07 07:39 50.02939 10.15021 27475 ft 432 kts 82°
2026-05-07 07:39 50.03320 10.19668 27893 ft 435 kts 82°
2026-05-07 07:40 50.03703 10.24363 28301 ft 438 kts 82°
2026-05-07 07:40 50.04085 10.29074 28679 ft 440 kts 82°
2026-05-07 07:40 50.04464 10.33805 29038 ft 442 kts 82°
2026-05-07 07:40 50.04837 10.38507 29352 ft 444 kts 83°
2026-05-07 07:41 50.05214 10.43282 29659 ft 445 kts 83°
2026-05-07 07:41 50.05590 10.48074 29951 ft 447 kts 83°
2026-05-07 07:41 50.05970 10.52885 30192 ft 449 kts 83°
2026-05-07 07:41 50.06351 10.57715 30402 ft 451 kts 84°
2026-05-07 07:42 50.06732 10.62583 30601 ft 454 kts 84°
2026-05-07 07:42 50.07081 10.67482 30806 ft 455 kts 88°
2026-05-07 07:42 50.07012 10.72391 31050 ft 454 kts 99°
2026-05-07 07:42 50.06392 10.77186 31341 ft 453 kts 104°
2026-05-07 07:43 50.05770 10.81659 31618 ft 453 kts 104°
2026-05-07 07:43 50.05101 10.86463 31883 ft 453 kts 104°
2026-05-07 07:43 50.04431 10.91245 32154 ft 454 kts 104°
2026-05-07 07:43 50.03747 10.96053 32435 ft 454 kts 105°
2026-05-07 07:44 50.03061 11.00832 32710 ft 454 kts 105°
2026-05-07 07:44 50.02366 11.05623 32977 ft 454 kts 105°
2026-05-07 07:44 50.01667 11.10417 33251 ft 455 kts 105°
2026-05-07 07:44 50.00965 11.15219 33525 ft 455 kts 106°
2026-05-07 07:45 50.00276 11.19927 33795 ft 455 kts 106°
2026-05-07 07:45 49.99568 11.24755 33913 ft 454 kts 106°
2026-05-07 07:45 49.98870 11.29517 33926 ft 452 kts 106°
2026-05-07 07:46 49.97474 11.39016 33927 ft 450 kts 107°
2026-05-07 07:46 49.96072 11.48480 33925 ft 450 kts 107°
2026-05-07 07:47 49.94651 11.57958 33930 ft 450 kts 107°
2026-05-07 07:47 49.93235 11.67346 33922 ft 450 kts 107°
2026-05-07 07:48 49.91814 11.76786 33919 ft 449 kts 108°
2026-05-07 07:48 49.90387 11.86222 33915 ft 449 kts 108°
2026-05-07 07:49 49.88946 11.95637 33917 ft 449 kts 108°
2026-05-07 07:49 49.87504 12.04988 33920 ft 449 kts 109°
2026-05-07 07:50 49.86053 12.14365 33921 ft 448 kts 109°
2026-05-07 07:50 49.84585 12.23771 33915 ft 448 kts 109°
2026-05-07 07:51 49.83119 12.33136 33915 ft 447 kts 109°
2026-05-07 07:51 49.81620 12.42433 33914 ft 444 kts 114°
2026-05-07 07:52 49.78975 12.50834 33913 ft 430 kts 130°
2026-05-07 07:52 49.75574 12.58428 33916 ft 430 kts 131°
2026-05-07 07:53 49.72184 12.66040 33922 ft 429 kts 130°
2026-05-07 07:53 49.68801 12.73638 33925 ft 429 kts 131°
2026-05-07 07:54 49.65421 12.81169 33925 ft 429 kts 131°
2026-05-07 07:54 49.62015 12.88717 33934 ft 429 kts 131°
2026-05-07 07:55 49.58595 12.96268 33928 ft 429 kts 131°
2026-05-07 07:55 49.55177 13.03810 33929 ft 429 kts 131°
2026-05-07 07:56 49.51783 13.11291 33924 ft 429 kts 131°
2026-05-07 07:56 49.48364 13.18803 33917 ft 429 kts 132°
2026-05-07 07:57 49.44922 13.26318 33917 ft 429 kts 132°
2026-05-07 07:57 49.41480 13.33805 33921 ft 430 kts 132°
2026-05-07 07:58 49.38066 13.41253 33916 ft 430 kts 132°
2026-05-07 07:58 49.34625 13.48742 33917 ft 430 kts 133°
2026-05-07 07:59 49.31150 13.56258 33920 ft 431 kts 133°
2026-05-07 07:59 49.27677 13.63741 33921 ft 431 kts 133°
2026-05-07 08:00 49.24226 13.71156 33921 ft 431 kts 133°
2026-05-07 08:00 49.20750 13.78622 33925 ft 431 kts 133°
2026-05-07 08:01 49.17270 13.86076 33920 ft 430 kts 133°
2026-05-07 08:01 49.13802 13.93490 33921 ft 431 kts 133°
2026-05-07 08:02 49.10321 14.00897 33917 ft 430 kts 134°
2026-05-07 08:02 49.06828 14.08295 33922 ft 431 kts 134°
2026-05-07 08:03 49.03321 14.15700 33927 ft 431 kts 134°
2026-05-07 08:03 48.99813 14.23093 33927 ft 431 kts 134°
2026-05-07 08:04 48.96302 14.30495 33929 ft 431 kts 134°
2026-05-07 08:04 48.94545 14.34186 33799 ft 431 kts 134°
2026-05-07 08:04 48.92775 14.37824 32518 ft 439 kts 135°
2026-05-07 08:04 48.90908 14.41534 31637 ft 440 kts 136°
2026-05-07 08:05 48.89068 14.45152 31312 ft 428 kts 136°
2026-05-07 08:05 48.87255 14.48702 30708 ft 423 kts 136°
2026-05-07 08:05 48.85457 14.52218 30125 ft 419 kts 136°
2026-05-07 08:05 48.83683 14.55692 29495 ft 415 kts 136°
2026-05-07 08:06 48.81929 14.59142 28939 ft 409 kts 136°
2026-05-07 08:06 48.80204 14.62538 28393 ft 404 kts 136°
2026-05-07 08:06 48.78523 14.65848 27856 ft 400 kts 136°
2026-05-07 08:06 48.76831 14.69171 27327 ft 395 kts 136°
2026-05-07 08:07 48.75160 14.72446 26802 ft 391 kts 136°
2026-05-07 08:07 48.73506 14.75685 26287 ft 387 kts 136°
2026-05-07 08:07 48.71863 14.78904 25780 ft 384 kts 136°
2026-05-07 08:07 48.70236 14.82084 25293 ft 381 kts 136°
2026-05-07 08:08 48.68618 14.85237 24810 ft 378 kts 136°
2026-05-07 08:08 48.67011 14.88369 24350 ft 375 kts 136°
2026-05-07 08:08 48.65416 14.91476 23884 ft 373 kts 136°
2026-05-07 08:08 48.63848 14.94523 23419 ft 371 kts 136°
2026-05-07 08:09 48.62272 14.97581 22943 ft 366 kts 136°
2026-05-07 08:09 48.60719 15.00596 22550 ft 361 kts 135°
2026-05-07 08:09 48.59335 15.03770 22131 ft 365 kts 126°
2026-05-07 08:09 48.58346 15.07337 21667 ft 372 kts 114°
2026-05-07 08:10 48.57685 15.11120 21202 ft 372 kts 111°
2026-05-07 08:10 48.57046 15.14886 20729 ft 369 kts 111°
2026-05-07 08:10 48.56406 15.18635 20243 ft 368 kts 111°
2026-05-07 08:10 48.55764 15.22366 19773 ft 367 kts 111°
2026-05-07 08:11 48.55130 15.26041 19293 ft 366 kts 111°
2026-05-07 08:11 48.54485 15.29764 18811 ft 366 kts 110°
2026-05-07 08:11 48.53839 15.33475 18334 ft 366 kts 110°
2026-05-07 08:11 48.53192 15.37188 17800 ft 365 kts 110°
2026-05-07 08:12 48.52528 15.40870 17329 ft 361 kts 113°
2026-05-07 08:12 48.51555 15.44305 16866 ft 353 kts 124°
2026-05-07 08:12 48.50211 15.47347 16582 ft 346 kts 133°
2026-05-07 08:12 48.48710 15.50183 16277 ft 345 kts 133°
2026-05-07 08:13 48.47240 15.52971 15965 ft 344 kts 133°
2026-05-07 08:13 48.45758 15.55787 15653 ft 342 kts 133°
2026-05-07 08:13 48.44285 15.58593 15345 ft 341 kts 133°
2026-05-07 08:13 48.42814 15.61390 15027 ft 340 kts 133°
2026-05-07 08:14 48.41350 15.64164 14731 ft 339 kts 132°
2026-05-07 08:14 48.39883 15.66949 14424 ft 337 kts 132°
2026-05-07 08:14 48.38432 15.69698 14121 ft 336 kts 132°
2026-05-07 08:14 48.37004 15.72393 13825 ft 335 kts 132°
2026-05-07 08:15 48.35526 15.75177 13494 ft 333 kts 132°
2026-05-07 08:15 48.34102 15.77855 13189 ft 332 kts 132°
2026-05-07 08:15 48.32664 15.80558 12892 ft 330 kts 132°
2026-05-07 08:15 48.31234 15.83252 12595 ft 329 kts 132°
2026-05-07 08:16 48.29813 15.85927 12314 ft 328 kts 132°
2026-05-07 08:16 48.28408 15.88565 12005 ft 326 kts 132°
2026-05-07 08:16 48.26971 15.91255 11706 ft 325 kts 132°
2026-05-07 08:16 48.25561 15.93890 11417 ft 323 kts 132°
2026-05-07 08:17 48.24158 15.96518 11124 ft 322 kts 132°
2026-05-07 08:17 48.22779 15.99100 10837 ft 320 kts 132°
2026-05-07 08:17 48.21390 16.01698 10551 ft 318 kts 132°
2026-05-07 08:17 48.20011 16.04269 10287 ft 313 kts 132°
2026-05-07 08:18 48.18673 16.06762 10164 ft 301 kts 133°
2026-05-07 08:18 48.17391 16.09155 9948 ft 288 kts 133°
2026-05-07 08:18 48.16151 16.11466 9678 ft 285 kts 133°
2026-05-07 08:18 48.14931 16.13728 9545 ft 283 kts 133°
2026-05-07 08:19 48.13671 16.16059 9342 ft 283 kts 132°
2026-05-07 08:19 48.12449 16.18321 9090 ft 282 kts 132°
2026-05-07 08:19 48.11218 16.20604 8812 ft 281 kts 132°
2026-05-07 08:19 48.09991 16.22881 8543 ft 281 kts 132°
2026-05-07 08:20 48.08770 16.25140 8268 ft 279 kts 132°
2026-05-07 08:20 48.07551 16.27392 8013 ft 278 kts 132°
2026-05-07 08:20 48.06334 16.29637 7742 ft 277 kts 131°
2026-05-07 08:20 48.05123 16.31870 7474 ft 276 kts 131°
2026-05-07 08:21 48.03919 16.34097 7204 ft 275 kts 131°
2026-05-07 08:21 48.02733 16.36284 6951 ft 274 kts 131°
2026-05-07 08:21 48.01531 16.38491 6688 ft 273 kts 130°
2026-05-07 08:21 48.00337 16.40683 6424 ft 271 kts 130°
2026-05-07 08:22 47.99148 16.42870 6152 ft 270 kts 130°
2026-05-07 08:22 47.97965 16.45043 5893 ft 271 kts 130°
2026-05-07 08:22 47.96777 16.47221 5626 ft 270 kts 130°
2026-05-07 08:22 47.95593 16.49397 5367 ft 270 kts 130°
2026-05-07 08:23 47.94413 16.51566 5094 ft 269 kts 130°
2026-05-07 08:23 47.93258 16.53683 4851 ft 268 kts 130°
2026-05-07 08:23 47.92071 16.55856 4583 ft 267 kts 130°
2026-05-07 08:23 47.90899 16.57997 4326 ft 267 kts 130°
2026-05-07 08:24 47.90033 16.60374 4175 ft 256 kts 101°
2026-05-07 08:24 47.90157 16.62850 4066 ft 231 kts 66°
2026-05-07 08:24 47.91061 16.64725 3898 ft 222 kts 36°
2026-05-07 08:24 47.92441 16.65646 3579 ft 217 kts
2026-05-07 08:25 47.93910 16.65433 3356 ft 210 kts 341°
2026-05-07 08:25 47.95303 16.64841 3233 ft 205 kts 342°
2026-05-07 08:25 47.96622 16.64290 3103 ft 195 kts 341°
2026-05-07 08:25 47.97912 16.63748 2848 ft 191 kts 342°
2026-05-07 08:26 48.00353 16.62723 2348 ft 171 kts 341°
2026-05-07 08:26 48.01451 16.62262 2137 ft 157 kts 340°
2026-05-07 08:26 48.02460 16.61838 1945 ft 145 kts 340°
2026-05-07 08:27 48.03410 16.61437 1753 ft 141 kts 339°
2026-05-07 08:27 48.04339 16.61044 1558 ft 139 kts 340°
2026-05-07 08:27 48.05251 16.60660 1380 ft 137 kts 340°
2026-05-07 08:27 48.06158 16.60277 1191 ft 135 kts 340°
2026-05-07 08:28 48.07059 16.59894 996 ft 135 kts 340°
2026-05-07 08:28 48.07953 16.59523 802 ft 130 kts 340°
2026-05-07 08:28 48.08840 16.59156 651 ft 132 kts 338°
2026-05-07 08:28 48.09669 16.58791 622 ft 109 kts 343°
2026-05-07 08:29 48.10297 16.58529 618 ft 82 kts 345°
2026-05-07 08:29 48.10781 16.58324 611 ft 64 kts 343°
2026-05-07 08:29 48.11177 16.58161 611 ft 55 kts 343°
2026-05-07 08:29 48.11521 16.58015 612 ft 50 kts 343°
2026-05-07 08:30 48.11766 16.57906 618 ft 30 kts 343°
2026-05-07 08:30 48.11861 16.57715 613 ft 20 kts 271°
2026-05-07 08:30 48.11828 16.57509 616 ft 21 kts 254°
2026-05-07 08:30 48.11817 16.57331 612 ft 12 kts 292°
2026-05-07 08:31 48.11856 16.57211 609 ft 13 kts 282°
2026-05-07 08:31 48.11877 16.57073 617 ft 13 kts 296°
2026-05-07 08:31 48.11915 16.56958 614 ft 9 kts 295°
2026-05-07 08:31 48.11900 16.56903 609 ft 4 kts 208°
2026-05-07 08:32 48.11877 16.56887 609 ft 3 kts 206°
2026-05-07 08:32 48.11866 16.56879 609 ft 0 kts 206°